TimeCDT,TemperatureF,Dew PointF,Humidity,Sea Level PressureIn,VisibilityMPH,Wind Direction,Wind SpeedMPH,Gust SpeedMPH,PrecipitationIn,Events,Conditions,WindDirDegrees,DateUTC
12:15 AM,57.2,53.6,88,30.08,10.0,Calm,Calm,-,N/A,,Clear,0,2013-08-03 05:15:00
12:35 AM,53.6,50.0,88,30.08,10.0,Calm,Calm,-,N/A,,Clear,0,2013-08-03 05:35:00
12:55 AM,53.6,50.0,88,30.08,10.0,Calm,Calm,-,N/A,,Clear,0,2013-08-03 05:55:00
1:15 AM,55.4,51.8,88,30.08,10.0,Calm,Calm,-,N/A,,Clear,0,2013-08-03 06:15:00
1:35 AM,53.6,50.0,88,30.08,10.0,Calm,Calm,-,N/A,,Clear,0,2013-08-03 06:35:00
1:55 AM,53.6,50.0,88,30.08,10.0,Calm,Calm,-,N/A,,Clear,0,2013-08-03 06:55:00
2:14 AM,53.6,50.0,88,30.09,10.0,NNW,4.6,-,N/A,,Clear,340,2013-08-03 07:14:00
2:35 AM,53.6,50.0,88,30.09,10.0,NNW,3.5,-,N/A,,Clear,340,2013-08-03 07:35:00
2:55 AM,53.6,50.0,88,30.10,10.0,Calm,Calm,-,N/A,,Clear,0,2013-08-03 07:55:00
3:15 AM,53.6,50.0,88,30.10,10.0,North,3.5,-,N/A,,Clear,10,2013-08-03 08:15:00
3:34 AM,53.6,50.0,88,30.10,10.0,Calm,Calm,-,N/A,,Clear,0,2013-08-03 08:34:00
3:55 AM,53.6,50.0,88,30.10,10.0,Calm,Calm,-,N/A,,Clear,0,2013-08-03 08:55:00
4:15 AM,53.6,50.0,88,30.10,10.0,Calm,Calm,-,N/A,,Clear,0,2013-08-03 09:15:00
4:34 AM,51.8,50.0,94,30.10,10.0,Calm,Calm,-,N/A,,Clear,0,2013-08-03 09:34:00
4:55 AM,48.2,46.4,93,30.11,10.0,Calm,Calm,-,N/A,,Clear,0,2013-08-03 09:55:00
5:15 AM,50.0,48.2,94,30.12,10.0,Calm,Calm,-,N/A,,Clear,0,2013-08-03 10:15:00
5:34 AM,50.0,48.2,94,30.12,10.0,Calm,Calm,-,N/A,,Clear,0,2013-08-03 10:34:00
5:55 AM,50.0,48.2,94,30.12,10.0,Calm,Calm,-,N/A,,Clear,0,2013-08-03 10:55:00
6:14 AM,48.2,46.4,93,30.12,10.0,Calm,Calm,-,N/A,,Clear,0,2013-08-03 11:14:00
6:35 AM,50.0,48.2,94,30.12,10.0,Calm,Calm,-,N/A,,Clear,0,2013-08-03 11:35:00
6:55 AM,50.0,48.2,94,30.14,10.0,Calm,Calm,-,N/A,,Clear,0,2013-08-03 11:55:00
7:15 AM,53.6,51.8,94,30.14,10.0,Calm,Calm,-,N/A,,Clear,0,2013-08-03 12:15:00
7:35 AM,55.4,53.6,94,30.15,10.0,Calm,Calm,-,N/A,,Clear,0,2013-08-03 12:35:00
7:55 AM,59.0,55.4,88,30.16,10.0,Calm,Calm,-,N/A,,Clear,0,2013-08-03 12:55:00
8:15 AM,60.8,59.0,94,30.16,10.0,Calm,Calm,-,N/A,,Scattered Clouds,0,2013-08-03 13:15:00
8:35 AM,62.6,57.2,82,30.16,10.0,Calm,Calm,-,N/A,,Clear,0,2013-08-03 13:35:00
8:55 AM,64.4,55.4,73,30.16,10.0,Calm,Calm,-,N/A,,Clear,0,2013-08-03 13:55:00
9:14 AM,66.2,55.4,68,30.17,10.0,Calm,Calm,-,N/A,,Clear,0,2013-08-03 14:14:00
9:35 AM,68.0,57.2,68,30.17,10.0,Calm,Calm,-,N/A,,Clear,0,2013-08-03 14:35:00
9:55 AM,71.6,59.0,64,30.17,10.0,WSW,3.5,-,N/A,,Scattered Clouds,250,2013-08-03 14:55:00
10:15 AM,71.6,57.2,60,30.18,10.0,Calm,Calm,-,N/A,,Clear,0,2013-08-03 15:15:00
10:35 AM,73.4,55.4,53,30.19,10.0,West,3.5,-,N/A,,Clear,270,2013-08-03 15:35:00
10:55 AM,73.4,55.4,53,30.19,10.0,West,3.5,-,N/A,,Clear,280,2013-08-03 15:55:00
11:15 AM,73.4,55.4,53,30.19,10.0,NNW,5.8,-,N/A,,Clear,340,2013-08-03 16:15:00
11:35 AM,73.4,53.6,50,30.19,10.0,WNW,5.8,-,N/A,,Clear,290,2013-08-03 16:35:00
11:55 AM,73.4,51.8,47,30.19,10.0,WNW,3.5,-,N/A,,Clear,290,2013-08-03 16:55:00
12:14 PM,73.4,51.8,47,30.19,10.0,NW,3.5,-,N/A,,Scattered Clouds,320,2013-08-03 17:14:00
12:35 PM,73.4,51.8,47,30.20,10.0,WNW,5.8,-,N/A,,Clear,290,2013-08-03 17:35:00
12:54 PM,73.4,53.6,50,30.20,10.0,West,4.6,-,N/A,,Clear,280,2013-08-03 17:54:00
1:14 PM,73.4,53.6,50,30.20,10.0,NW,9.2,-,N/A,,Scattered Clouds,310,2013-08-03 18:14:00
1:34 PM,75.2,53.6,47,30.20,10.0,WNW,4.6,-,N/A,,Mostly Cloudy,290,2013-08-03 18:34:00
1:55 PM,77.0,51.8,41,30.20,10.0,WNW,8.1,16.1,N/A,,Mostly Cloudy,300,2013-08-03 18:55:00
2:15 PM,73.4,51.8,47,30.19,10.0,NW,8.1,-,N/A,,Scattered Clouds,310,2013-08-03 19:15:00
2:35 PM,75.2,51.8,44,30.19,10.0,North,6.9,-,N/A,,Scattered Clouds,360,2013-08-03 19:35:00
2:55 PM,75.2,51.8,44,30.19,10.0,NNW,9.2,-,N/A,,Scattered Clouds,340,2013-08-03 19:55:00
3:15 PM,75.2,51.8,44,30.18,10.0,NW,9.2,-,N/A,,Clear,310,2013-08-03 20:15:00
3:35 PM,78.8,55.4,44,30.18,10.0,NW,9.2,-,N/A,,Clear,310,2013-08-03 20:35:00
3:55 PM,77.0,53.6,44,30.18,10.0,WNW,5.8,-,N/A,,Scattered Clouds,290,2013-08-03 20:55:00
4:15 PM,78.8,55.4,44,30.18,10.0,NW,6.9,-,N/A,,Clear,310,2013-08-03 21:15:00
4:35 PM,78.8,55.4,44,30.17,10.0,WNW,10.4,16.1,N/A,,Scattered Clouds,300,2013-08-03 21:35:00
4:55 PM,77.0,53.6,44,30.17,10.0,WNW,8.1,16.1,N/A,,Clear,300,2013-08-03 21:55:00
5:15 PM,78.8,55.4,44,30.17,10.0,NW,6.9,-,N/A,,Scattered Clouds,310,2013-08-03 22:15:00
5:35 PM,78.8,55.4,44,30.17,10.0,WNW,9.2,-,N/A,,Overcast,290,2013-08-03 22:35:00
5:55 PM,77.0,53.6,44,30.17,10.0,North,6.9,-,N/A,,Mostly Cloudy,10,2013-08-03 22:55:00
6:15 PM,73.4,53.6,50,30.17,10.0,North,6.9,-,N/A,,Scattered Clouds,350,2013-08-03 23:15:00
6:35 PM,75.2,53.6,47,30.17,10.0,North,9.2,-,N/A,,Clear,350,2013-08-03 23:35:00
6:55 PM,73.4,51.8,47,30.17,10.0,North,8.1,-,N/A,,Scattered Clouds,350,2013-08-03 23:55:00
7:15 PM,73.4,53.6,50,30.17,10.0,North,6.9,-,N/A,,Clear,350,2013-08-04 00:15:00
7:35 PM,73.4,55.4,53,30.17,10.0,North,4.6,-,N/A,,Clear,350,2013-08-04 00:35:00
7:55 PM,71.6,55.4,57,30.17,10.0,North,4.6,-,N/A,,Clear,360,2013-08-04 00:55:00
8:15 PM,68.0,55.4,64,30.18,10.0,North,4.6,-,N/A,,Clear,350,2013-08-04 01:15:00
8:35 PM,64.4,53.6,68,30.17,10.0,North,4.6,-,N/A,,Clear,350,2013-08-04 01:35:00
8:55 PM,62.6,55.4,77,30.18,10.0,North,4.6,-,N/A,,Clear,350,2013-08-04 01:55:00
9:15 PM,62.6,55.4,77,30.19,10.0,NNW,3.5,-,N/A,,Clear,340,2013-08-04 02:15:00
9:35 PM,60.8,55.4,82,30.19,7.0,Calm,Calm,-,N/A,,Clear,0,2013-08-04 02:35:00
9:54 PM,60.8,53.6,77,30.20,10.0,Calm,Calm,-,N/A,,Clear,0,2013-08-04 02:54:00
10:15 PM,60.8,53.6,77,30.20,10.0,Calm,Calm,-,N/A,,Clear,0,2013-08-04 03:15:00
10:35 PM,59.0,51.8,77,30.20,10.0,North,3.5,-,N/A,,Clear,360,2013-08-04 03:35:00
10:55 PM,59.0,51.8,77,30.21,10.0,Calm,Calm,-,N/A,,Clear,0,2013-08-04 03:55:00
11:15 PM,59.0,51.8,77,30.22,10.0,Calm,Calm,-,N/A,,Clear,0,2013-08-04 04:15:00
11:34 PM,59.0,53.6,82,30.22,10.0,Calm,Calm,-,N/A,,Clear,0,2013-08-04 04:34:00
11:54 PM,59.0,51.8,77,30.23,10.0,Calm,Calm,-,N/A,,Clear,0,2013-08-04 04:54:00